DECAYED

STARLINK-1982, 47580 (Decayed)

Orbit data source: Space-Track

STARLINK-1982, 47580 was a payload satellite owned by SpaceX/Seattle (US) in LEO that was launched on Thu, 04 Feb 2021 UTC via an FALCON 9 launch vehicle from the Air Force Eastern Test Range (AFETR). Payload-class satellites include a variety of spacecraft equipped with specific instruments for various scientific and technological missions. These include communications satellites like Starlink; space stations such as the ISS; scientific satellites like the Hubble; Earth observation satellites from companies like Planet Labs, Umbra, and HawkEye 360; GPS; miniature CubeSats for education and research; and military/defense satellites.

Not visible in the next 10 days
Identifier
47580, 2021-009AJ
Orbit
Decayed
Country
Flag of USUS
Related business
Manufacturer
SpaceX/Seattle
Mission
Decayed Commercial Communications
Bus & Motor
STARLINK, Unknown motor
Mass
260 kg wet, ~248 kg dry
Launch date (UTC)
2021-02-04 (5 years ago)
Launch vehicle
FALCON 9
Launch site
Air Force Eastern Test Range (AFETR)
Object type
Payload
Rocket body
Debris
Shape & HBR
Box + 1 Pan, 10.1 m
Radar Cross Section
13.562 m², Large (>1 m²)

Expand to show TLE details & history
Last TLE update: 1 year ago

TLE from 1 year ago
0 STARLINK-1982
1 47580U 21009AJ  25179.76344433  .15598006  12562-4  27215-3 0  9998
2 47580  53.0189  29.9110 0012403 272.7370 171.3535 16.46787518243841
Epoch: 2025-06-28T18:19Z
TLE epoch observation values (Epoch: 2025-06-28T18:19:21.590Z)
Latitude
52.77788°
Longitude
-81.76585°
Altitude
162.191 km
Speed
7.811 km/s
True Right ascension
07h 20m 41s
True Declination
52° 35' 49"
Sunlit
Object was in daylight at epoch
Visualization orbit readout
Latitude
Unknown
Longitude
Unknown
Altitude
Unknown
Speed
Unknown
Apparent Right ascension
Unknown
Apparent Declination
Unknown
Sunlit
N/A
Visualization observer readout
Local Sidereal Time
21:25:22
Azimuth
Unknown
Elevation
Unknown
Doppler factor
Unknown
Orbital elements
Apogee altitude
156.196 km
Perigee altitude
140.007 km
Semi-major axis
6,526.239 km
Eccentricity
0.00124
Inclination
53.0189°
RAAN
29.911°
Arg. of periapsis
272.737°
True anomaly
171.37483°
Mean anomaly
171.3535°
Eccentric anomaly
171.36417°
Mean motion
4.1167 °/min
Orbital period
87.45 mins
BSTAR
0.00027215
Loading maneuver chart data...
Computing Atmospheric mass density...

Documentation

Showing up to 5 results
|